• en France
  • Liste des pays
  • À 7 jours
  • Température de l'eau
  • Carte satellitaire
  • Carte météo
  • Widgets météo
  • user-avatar
    Se connecter

    Météo par heure à Shеki

    Ce jour, 18 Octobre, Jeudi

    Heure Température Précipitation Vent Pression Humidité
    00:00 +16°C° 0 mm 1 m/s 740 mmHg 81%
    01:00 +16°C° 0 mm 1 m/s 740 mmHg 79%
    02:00 +15°C° 0 mm 1 m/s 740 mmHg 77%
    03:00 +15°C° 0 mm 1 m/s 739 mmHg 75%
    04:00 +15°C° 0 mm 1 m/s 739 mmHg 73%
    05:00 +15°C° 0 mm 1 m/s 739 mmHg 70%
    06:00 +15°C° 0 mm 1 m/s 739 mmHg 68%
    07:00 +18°C° 0 mm 1 m/s 739 mmHg 65%
    08:00 +19°C° 0 mm 1 m/s 739 mmHg 63%
    09:00 +20°C° 0 mm 2 m/s 739 mmHg 58%
    10:00 +21°C° 0 mm 2 m/s 739 mmHg 56%
    11:00 +23°C° 0 mm 2 m/s 739 mmHg 53%
    12:00 +24°C° 0 mm 2 m/s 739 mmHg 51%
    13:00 +24°C° 0 mm 2 m/s 738 mmHg 50%
    14:00 +24°C° 0 mm 2 m/s 738 mmHg 50%
    15:00 +24°C° 0 mm 2 m/s 738 mmHg 52%
    16:00 +21°C° 0 mm 2 m/s 738 mmHg 59%
    17:00 +20°C° 0 mm 2 m/s 738 mmHg 66%
    18:00 +18°C° 0 mm 2 m/s 738 mmHg 72%
    19:00 +18°C° 0 mm 2 m/s 739 mmHg 72%
    20:00 +18°C° 0 mm 2 m/s 739 mmHg 71%
    21:00 +17°C° 0 mm 2 m/s 739 mmHg 71%
    22:00 +17°C° 0 mm 2 m/s 739 mmHg 72%
    23:00 +17°C° 0 mm 2 m/s 739 mmHg 72%

    Demain, 19 Octobre, Vendredi

    Heure Température Précipitation Vent Pression Humidité
    00:00 +16°C° 0 mm 2 m/s 739 mmHg 73%
    01:00 +16°C° 0 mm 2 m/s 739 mmHg 74%
    02:00 +16°C° 0 mm 1 m/s 739 mmHg 74%
    03:00 +15°C° 0 mm 1 m/s 739 mmHg 75%
    04:00 +15°C° 0 mm 1 m/s 739 mmHg 74%
    05:00 +15°C° 0 mm 1 m/s 739 mmHg 74%
    06:00 +15°C° 0 mm 1 m/s 739 mmHg 73%
    07:00 +18°C° 0 mm 1 m/s 739 mmHg 70%
    08:00 +19°C° 0 mm 1 m/s 739 mmHg 67%
    09:00 +20°C° 0 mm 1 m/s 739 mmHg 64%
    10:00 +21°C° 0 mm 1 m/s 739 mmHg 61%
    11:00 +21°C° 0 mm 2 m/s 739 mmHg 58%
    12:00 +23°C° 0 mm 2 m/s 738 mmHg 55%
    13:00 +23°C° 0 mm 2 m/s 738 mmHg 55%
    14:00 +23°C° 0 mm 2 m/s 738 mmHg 55%
    15:00 +24°C° 0 mm 2 m/s 737 mmHg 55%
    16:00 +21°C° 0 mm 2 m/s 738 mmHg 62%
    17:00 +21°C° 0 mm 1 m/s 738 mmHg 68%
    18:00 +20°C° 0 mm 1 m/s 738 mmHg 75%
    19:00 +19°C° 0 mm 1 m/s 738 mmHg 76%
    20:00 +19°C° 0 mm 1 m/s 738 mmHg 77%
    21:00 +18°C° 0 mm 1 m/s 738 mmHg 78%
    22:00 +18°C° 0 mm 1 m/s 738 mmHg 79%
    23:00 +18°C° 0 mm 1 m/s 738 mmHg 80%

    Après-demain, 20 Octobre, Samedi

    Heure Température Précipitation Vent Pression Humidité
    00:00 +16°C° 0 mm 1 m/s 738 mmHg 81%
    01:00 +16°C° 0 mm 1 m/s 737 mmHg 81%
    02:00 +16°C° 0 mm 1 m/s 737 mmHg 82%
    03:00 +15°C° 0 mm 1 m/s 737 mmHg 82%
    04:00 +15°C° 0 mm 1 m/s 737 mmHg 82%
    05:00 +15°C° 0 mm 1 m/s 737 mmHg 81%
    06:00 +15°C° 0 mm 1 m/s 737 mmHg 81%
    07:00 +18°C° 0 mm 1 m/s 737 mmHg 73%
    08:00 +18°C° 0 mm 2 m/s 737 mmHg 66%
    09:00 +20°C° 0 mm 2 m/s 737 mmHg 58%
    10:00 +21°C° 0 mm 2 m/s 736 mmHg 53%
    11:00 +23°C° 0 mm 2 m/s 736 mmHg 47%
    12:00 +24°C° 0 mm 2 m/s 736 mmHg 41%
    13:00 +25°C° 0 mm 2 m/s 735 mmHg 40%
    14:00 +25°C° 0 mm 1 m/s 735 mmHg 38%
    15:00 +25°C° 0 mm 1 m/s 735 mmHg 37%
    16:00 +23°C° 0 mm 1 m/s 735 mmHg 42%
    17:00 +22°C° 0 mm 1 m/s 735 mmHg 47%
    18:00 +20°C° 0 mm 1 m/s 735 mmHg 52%
    19:00 +20°C° 0 mm 1 m/s 735 mmHg 53%
    20:00 +20°C° 0 mm 1 m/s 735 mmHg 53%
    21:00 +19°C° 0 mm 1 m/s 735 mmHg 54%
    22:00 +19°C° 0 mm 1 m/s 735 mmHg 55%
    23:00 +18°C° 0 mm 1 m/s 735 mmHg 55%

    21 Octobre, Dimanche

    Heure Température Précipitation Vent Pression Humidité
    00:00 +18°C° 0 mm 1 m/s 735 mmHg 55%
    01:00 +18°C° 0 mm 1 m/s 735 mmHg 55%
    02:00 +18°C° 0 mm 1 m/s 735 mmHg 54%
    03:00 +18°C° 0 mm 1 m/s 734 mmHg 53%
    04:00 +16°C° 0 mm 1 m/s 734 mmHg 51%
    05:00 +16°C° 0 mm 1 m/s 734 mmHg 49%
    06:00 +16°C° 0 mm 1 m/s 735 mmHg 47%
    07:00 +19°C° 0 mm 1 m/s 735 mmHg 42%
    08:00 +21°C° 0 mm 1 m/s 735 mmHg 38%
    09:00 +23°C° 0 mm 1 m/s 735 mmHg 34%
    10:00 +24°C° 0 mm 2 m/s 735 mmHg 32%
    11:00 +25°C° 0 mm 2 m/s 734 mmHg 30%
    12:00 +26°C° 0 mm 2 m/s 734 mmHg 28%
    13:00 +26°C° 0 mm 2 m/s 734 mmHg 28%
    14:00 +26°C° 0 mm 1 m/s 733 mmHg 28%
    15:00 +26°C° 0 mm 1 m/s 733 mmHg 28%
    16:00 +24°C° 0 mm 1 m/s 733 mmHg 32%
    17:00 +23°C° 0 mm 1 m/s 733 mmHg 35%
    18:00 +21°C° 0 mm 1 m/s 733 mmHg 39%
    19:00 +21°C° 0 mm 1 m/s 734 mmHg 40%
    20:00 +21°C° 0 mm 1 m/s 734 mmHg 40%
    21:00 +20°C° 0 mm 1 m/s 734 mmHg 40%
    22:00 +20°C° 0 mm 1 m/s 734 mmHg 40%
    23:00 +20°C° 0 mm 1 m/s 733 mmHg 40%

    22 Octobre, Lundi

    Heure Température Précipitation Vent Pression Humidité
    00:00 +19°C° 0 mm 1 m/s 733 mmHg 40%
    01:00 +19°C° 0 mm 1 m/s 733 mmHg 40%
    02:00 +19°C° 0 mm 1 m/s 733 mmHg 40%
    03:00 +19°C° 0 mm 1 m/s 733 mmHg 40%
    04:00 +19°C° 0 mm 1 m/s 733 mmHg 40%
    05:00 +19°C° 0 mm 1 m/s 733 mmHg 40%
    06:00 +19°C° 0 mm 1 m/s 733 mmHg 40%
    07:00 +20°C° 0 mm 1 m/s 733 mmHg 38%
    08:00 +22°C° 0 mm 1 m/s 734 mmHg 36%
    09:00 +23°C° 0 mm 2 m/s 734 mmHg 33%
    10:00 +24°C° 0 mm 2 m/s 733 mmHg 31%
    11:00 +25°C° 0 mm 2 m/s 733 mmHg 29%
    12:00 +26°C° 0 mm 3 m/s 733 mmHg 28%
    13:00 +26°C° 0 mm 3 m/s 733 mmHg 27%
    14:00 +26°C° 0 mm 3 m/s 733 mmHg 27%
    15:00 +26°C° 0 mm 3 m/s 732 mmHg 27%
    16:00 +25°C° 0 mm 3 m/s 733 mmHg 31%
    17:00 +23°C° 0 mm 2 m/s 733 mmHg 34%
    18:00 +21°C° 0 mm 2 m/s 733 mmHg 37%
    19:00 +20°C° 0 mm 2 m/s 733 mmHg 38%
    20:00 +20°C° 0 mm 2 m/s 734 mmHg 39%
    21:00 +20°C° 0 mm 2 m/s 734 mmHg 41%
    22:00 +19°C° 0 mm 2 m/s 734 mmHg 42%
    23:00 +19°C° 0 mm 2 m/s 734 mmHg 42%

    23 Octobre, Mardi

    Heure Température Précipitation Vent Pression Humidité
    00:00 +19°C° 0 mm 2 m/s 734 mmHg 43%
    01:00 +18°C° 0 mm 2 m/s 734 mmHg 43%
    02:00 +18°C° 0 mm 2 m/s 734 mmHg 43%
    03:00 +18°C° 0 mm 2 m/s 734 mmHg 42%
    04:00 +18°C° 0 mm 2 m/s 734 mmHg 42%
    05:00 +18°C° 0 mm 2 m/s 734 mmHg 43%
    06:00 +17°C° 0 mm 2 m/s 735 mmHg 43%
    07:00 +19°C° 0 mm 2 m/s 735 mmHg 40%
    08:00 +21°C° 0 mm 2 m/s 735 mmHg 36%
    09:00 +24°C° 0 mm 2 m/s 735 mmHg 33%
    10:00 +25°C° 0 mm 2 m/s 735 mmHg 31%
    11:00 +26°C° 0 mm 2 m/s 734 mmHg 29%
    12:00 +27°C° 0 mm 2 m/s 734 mmHg 27%
    13:00 +27°C° 0 mm 2 m/s 734 mmHg 26%
    14:00 +27°C° 0 mm 2 m/s 734 mmHg 26%
    15:00 +27°C° 0 mm 2 m/s 733 mmHg 25%
    16:00 +25°C° 0 mm 2 m/s 734 mmHg 27%
    17:00 +24°C° 0 mm 2 m/s 734 mmHg 29%
    18:00 +22°C° 0 mm 1 m/s 734 mmHg 31%
    19:00 +21°C° 0 mm 2 m/s 734 mmHg 32%
    20:00 +20°C° 0 mm 2 m/s 734 mmHg 33%
    21:00 +20°C° 0 mm 2 m/s 734 mmHg 34%
    22:00 +20°C° 0 mm 2 m/s 734 mmHg 38%
    23:00 +19°C° 0 mm 2 m/s 734 mmHg 41%
    Voir plus